Time,TemperatureF,DewpointF,PressureIn,WindDirection,WindDirectionDegrees,WindSpeedMPH,WindSpeedGustMPH,Humidity,HourlyPrecipIn,Conditions,Clouds,dailyrainin,SoftwareType,DateUTC
2013-11-22 00:21:00,30.0,23.0,30.48,North,355,23.0,31.0,76,0.00,,,0.00,,2013-11-22 06:21:00,
2013-11-22 00:42:00,30.0,23.0,30.49,North,11,20.0,31.0,75,0.00,,,0.00,,2013-11-22 06:42:00,
2013-11-22 00:52:00,30.0,23.0,30.49,North,355,19.0,30.0,76,0.00,,,0.00,,2013-11-22 06:52:00,
2013-11-22 01:12:00,29.0,21.0,30.49,NNW,348,23.0,32.0,73,0.00,,,0.00,,2013-11-22 07:12:00,
2013-11-22 01:21:00,30.0,22.0,30.49,NNW,338,16.0,28.0,73,0.00,,,0.00,,2013-11-22 07:21:00,
2013-11-22 01:42:00,29.0,21.0,30.48,North,355,20.0,29.0,72,0.00,,,0.00,,2013-11-22 07:42:00,
2013-11-22 01:52:00,29.0,21.0,30.49,North,11,18.0,31.0,72,0.00,,,0.00,,2013-11-22 07:52:00,
2013-11-22 02:21:00,29.0,21.0,30.49,North,355,20.0,32.0,73,0.00,,,0.00,,2013-11-22 08:21:00,
2013-11-22 02:42:00,29.0,21.0,30.49,North,350,16.0,30.0,72,0.00,,,0.00,,2013-11-22 08:42:00,
2013-11-22 02:52:00,29.0,21.0,30.49,North,10,21.0,32.0,72,0.00,,,0.00,,2013-11-22 08:52:00,
2013-11-22 03:11:00,28.0,20.0,30.49,North,349,25.0,37.0,72,0.00,,,0.00,,2013-11-22 09:11:00,
2013-11-22 03:21:00,28.0,20.0,30.50,NNW,342,19.0,32.0,73,0.00,,,0.00,,2013-11-22 09:21:00,
2013-11-22 03:43:00,28.0,21.0,30.49,NNW,348,20.0,30.0,74,0.00,,,0.00,,2013-11-22 09:43:00,
2013-11-22 03:53:00,27.0,20.0,30.50,North,360,21.0,32.0,73,0.00,,,0.00,,2013-11-22 09:53:00,
2013-11-22 04:23:00,27.0,20.0,30.50,North,360,23.0,32.0,73,0.00,,,0.00,,2013-11-22 10:23:00,
2013-11-22 04:42:00,27.0,19.0,30.50,North,5,25.0,34.0,72,0.00,,,0.00,,2013-11-22 10:42:00,
2013-11-22 04:53:00,27.0,19.0,30.52,North,355,19.0,29.0,72,0.00,,,0.00,,2013-11-22 10:53:00,
2013-11-22 05:12:00,27.0,19.0,30.52,North,360,21.0,34.0,71,0.00,,,0.00,,2013-11-22 11:12:00,
2013-11-22 05:22:00,27.0,19.0,30.53,NNE,18,19.0,31.0,72,0.00,,,0.00,,2013-11-22 11:22:00,
2013-11-22 05:52:00,27.0,19.0,30.52,North,11,21.0,31.0,72,0.00,,,0.00,,2013-11-22 11:52:00,
2013-11-22 06:22:00,27.0,19.0,30.52,NNE,18,16.0,25.0,72,0.00,,,0.00,,2013-11-22 12:22:00,
2013-11-22 06:42:00,27.0,19.0,30.52,North,11,20.0,34.0,72,0.00,,,0.00,,2013-11-22 12:42:00,
2013-11-22 06:52:00,27.0,19.0,30.53,NNW,344,18.0,31.0,72,0.00,,,0.00,,2013-11-22 12:52:00,
2013-11-22 07:22:00,27.0,19.0,30.58,NNW,344,17.0,22.0,71,0.00,,,0.00,,2013-11-22 13:22:00,
2013-11-22 07:42:00,27.0,19.0,30.59,North,350,19.0,28.0,71,0.00,,,0.00,,2013-11-22 13:42:00,
2013-11-22 07:52:00,27.0,19.0,30.59,North,355,14.0,24.0,71,0.00,,,0.00,,2013-11-22 13:52:00,
2013-11-22 08:11:00,27.0,19.0,30.59,NNE,14,19.0,26.0,71,0.00,,,0.00,,2013-11-22 14:11:00,
2013-11-22 08:22:00,27.0,19.0,30.59,North,11,13.0,23.0,72,0.00,,,0.00,,2013-11-22 14:22:00,
2013-11-22 08:42:00,27.0,19.0,30.58,North,355,16.0,23.0,71,0.00,,,0.00,,2013-11-22 14:42:00,
2013-11-22 08:52:00,27.0,19.0,30.58,NNE,17,22.0,28.0,71,0.00,,,0.00,,2013-11-22 14:52:00,
2013-11-22 09:11:00,28.0,20.0,30.58,NNE,19,16.0,27.0,71,0.00,,,0.00,,2013-11-22 15:11:00,
2013-11-22 09:22:00,28.0,20.0,30.60,North,5,19.0,30.0,70,0.00,,,0.00,,2013-11-22 15:22:00,
2013-11-22 09:43:00,28.0,20.0,30.60,North,360,20.0,27.0,70,0.00,,,0.00,,2013-11-22 15:43:00,
2013-11-22 09:54:00,28.0,20.0,30.59,NNE,18,22.0,31.0,70,0.00,,,0.00,,2013-11-22 15:54:00,
2013-11-22 10:23:00,28.0,19.0,30.63,NNE,24,20.0,27.0,69,0.00,,,0.00,,2013-11-22 16:23:00,
2013-11-22 10:43:00,28.0,20.0,30.64,North,5,20.0,26.0,71,0.00,,,0.00,,2013-11-22 16:43:00,
2013-11-22 10:53:00,28.0,21.0,30.64,NNE,19,16.0,24.0,76,0.00,,,0.00,,2013-11-22 16:53:00,
2013-11-22 11:12:00,28.0,22.0,30.63,NNW,337,20.0,29.0,78,0.00,,,0.00,,2013-11-22 17:12:00,
2013-11-22 11:22:00,28.0,23.0,30.61,NNE,22,18.0,28.0,80,0.00,,,0.00,,2013-11-22 17:22:00,
2013-11-22 11:42:00,28.0,23.0,30.62,North,355,18.0,27.0,80,0.00,,,0.00,,2013-11-22 17:42:00,
2013-11-22 11:52:00,28.0,23.0,30.62,NNE,25,14.0,23.0,81,0.00,,,0.00,,2013-11-22 17:52:00,
2013-11-22 12:21:00,28.0,23.0,30.60,NNW,341,17.0,21.0,82,0.00,,,0.00,,2013-11-22 18:21:00,
2013-11-22 12:42:00,28.0,24.0,30.59,North,360,14.0,21.0,83,0.00,,,0.00,,2013-11-22 18:42:00,
2013-11-22 12:52:00,28.0,23.0,30.59,North,10,15.0,25.0,82,0.00,,,0.00,,2013-11-22 18:52:00,
2013-11-22 13:22:00,28.0,23.0,30.56,North,10,19.0,27.0,82,0.00,,,0.00,,2013-11-22 19:22:00,
2013-11-22 13:42:00,29.0,24.0,30.56,North,5,16.0,24.0,82,0.00,,,0.00,,2013-11-22 19:42:00,
2013-11-22 13:52:00,29.0,25.0,30.55,North,355,18.0,27.0,83,0.00,,,0.00,,2013-11-22 19:52:00,
2013-11-22 14:11:00,29.0,25.0,30.56,North,350,13.0,20.0,84,0.00,,,0.00,,2013-11-22 20:11:00,
2013-11-22 14:22:00,29.0,25.0,30.56,North,360,13.0,22.0,84,0.00,,,0.00,,2013-11-22 20:22:00,
2013-11-22 14:42:00,29.0,25.0,30.56,NNE,30,13.0,21.0,84,0.00,,,0.00,,2013-11-22 20:42:00,
2013-11-22 14:52:00,28.0,24.0,30.56,North,5,14.0,21.0,84,0.00,,,0.00,,2013-11-22 20:52:00,
2013-11-22 15:22:00,28.0,24.0,30.56,NNE,14,15.0,19.0,84,0.00,,,0.00,,2013-11-22 21:22:00,
2013-11-22 15:43:00,28.0,24.0,30.57,North,360,14.0,20.0,84,0.00,,,0.00,,2013-11-22 21:43:00,
2013-11-22 15:53:00,28.0,24.0,30.57,North,5,12.0,21.0,84,0.00,,,0.00,,2013-11-22 21:53:00,
2013-11-22 16:23:00,28.0,24.0,30.56,North,351,15.0,20.0,84,0.00,,,0.00,,2013-11-22 22:23:00,
2013-11-22 16:42:00,28.0,24.0,30.56,North,349,15.0,19.0,84,0.00,,,0.00,,2013-11-22 22:42:00,
2013-11-22 16:53:00,28.0,24.0,30.57,NNW,344,16.0,21.0,84,0.00,,,0.00,,2013-11-22 22:53:00,
2013-11-22 17:22:00,28.0,24.0,30.57,North,355,17.0,23.0,84,0.00,,,0.00,,2013-11-22 23:22:00,
2013-11-22 17:42:00,28.0,24.0,30.56,NNW,345,15.0,24.0,84,0.00,,,0.00,,2013-11-22 23:42:00,
2013-11-22 17:53:00,28.0,24.0,30.57,NE,37,15.0,22.0,84,0.00,,,0.00,,2013-11-22 23:53:00,
2013-11-22 18:11:00,28.0,24.0,30.57,North,360,13.0,18.0,85,0.00,,,0.00,,2013-11-23 00:11:00,
2013-11-22 18:21:00,28.0,24.0,30.57,NNE,13,12.0,22.0,85,0.00,,,0.00,,2013-11-23 00:21:00,
2013-11-22 18:52:00,29.0,25.0,30.58,NNE,28,14.0,19.0,85,0.00,,,0.00,,2013-11-23 00:52:00,
2013-11-22 19:11:00,28.0,24.0,30.59,North,355,11.0,21.0,84,0.00,,,0.00,,2013-11-23 01:11:00,
2013-11-22 19:21:00,28.0,24.0,30.59,North,355,11.0,16.0,84,0.00,,,0.00,,2013-11-23 01:21:00,
2013-11-22 19:42:00,28.0,24.0,30.59,North,360,10.0,16.0,83,0.00,,,0.00,,2013-11-23 01:42:00,
2013-11-22 19:53:00,28.0,23.0,30.59,NNE,18,8.0,17.0,82,0.00,,,0.00,,2013-11-23 01:53:00,
2013-11-22 20:22:00,29.0,24.0,30.59,North,355,10.0,17.0,80,0.00,,,0.00,,2013-11-23 02:22:00,
2013-11-22 20:42:00,29.0,23.0,30.59,North,360,10.0,15.0,79,0.00,,,0.00,,2013-11-23 02:42:00,
2013-11-22 20:53:00,29.0,23.0,30.60,North,349,11.0,14.0,78,0.00,,,0.00,,2013-11-23 02:53:00,
2013-11-22 21:22:00,29.0,23.0,30.59,North,360,11.0,17.0,78,0.00,,,0.00,,2013-11-23 03:22:00,
2013-11-22 21:43:00,29.0,23.0,30.59,NNE,26,9.0,16.0,78,0.00,,,0.00,,2013-11-23 03:43:00,
2013-11-22 21:53:00,29.0,23.0,30.60,NNE,15,11.0,16.0,78,0.00,,,0.00,,2013-11-23 03:53:00,
2013-11-22 22:13:00,29.0,23.0,30.59,NNE,14,11.0,15.0,78,0.00,,,0.00,,2013-11-23 04:13:00,
2013-11-22 22:23:00,29.0,23.0,30.59,North,360,13.0,18.0,78,0.00,,,0.00,,2013-11-23 04:23:00,
2013-11-22 22:43:00,29.0,23.0,30.59,NNE,23,12.0,19.0,77,0.00,,,0.00,,2013-11-23 04:43:00,
2013-11-22 22:53:00,29.0,23.0,30.60,NNE,22,13.0,18.0,77,0.00,,,0.00,,2013-11-23 04:53:00,
2013-11-22 23:22:00,29.0,22.0,30.61,NNE,18,11.0,17.0,76,0.00,,,0.00,,2013-11-23 05:22:00,
2013-11-22 23:42:00,30.0,23.0,30.60,North,355,10.0,16.0,76,0.00,,,0.00,,2013-11-23 05:42:00,
2013-11-22 23:53:00,30.0,23.0,30.60,North,351,13.0,19.0,75,0.00,,,0.00,,2013-11-23 05:53:00,